• In Czech Republic
  • List of Countries
  • For 7 days
  • Water Temperature
  • Satellite Maps
  • Weather Map
  • Weather Widgets
  • user-avatar
    Login

    Hourly Weather Stafford

    Today, 19 October, Thursday

    Time Temperature Precipitation Wind Pressure Humidity
    00:00 +11°C° 0 mm 1 mps 748 mmHg 97%
    01:00 +10°C° 0 mm 2 mps 747 mmHg 96%
    02:00 +10°C° 0 mm 2 mps 747 mmHg 96%
    03:00 +12°C° 0 mm 2 mps 747 mmHg 96%
    04:00 +12°C° 0 mm 2 mps 747 mmHg 96%
    05:00 +10°C° 0 mm 2 mps 746 mmHg 96%
    06:00 +10°C° 0 mm 2 mps 746 mmHg 96%
    07:00 +12°C° 0.3 mm 2 mps 746 mmHg 96%
    08:00 +11°C° 0.3 mm 3 mps 745 mmHg 96%
    09:00 +12°C° 0.3 mm 3 mps 745 mmHg 96%
    10:00 +12°C° 3.1 mm 3 mps 744 mmHg 95%
    11:00 +13°C° 3.1 mm 3 mps 743 mmHg 95%
    12:00 +13°C° 3.1 mm 4 mps 743 mmHg 95%
    13:00 +14°C° 1 mm 4 mps 742 mmHg 93%
    14:00 +14°C° 1 mm 5 mps 741 mmHg 92%
    15:00 +15°C° 1 mm 5 mps 741 mmHg 91%
    16:00 +14°C° 0.1 mm 6 mps 740 mmHg 90%
    17:00 +13°C° 0.1 mm 6 mps 740 mmHg 89%
    18:00 +13°C° 0.1 mm 6 mps 739 mmHg 88%
    19:00 +12°C° 0.4 mm 7 mps 739 mmHg 88%
    20:00 +12°C° 0.4 mm 7 mps 738 mmHg 89%
    21:00 +12°C° 0.4 mm 8 mps 738 mmHg 89%
    22:00 +11°C° 0.1 mm 7 mps 738 mmHg 89%
    23:00 +11°C° 0.1 mm 7 mps 738 mmHg 89%

    Tomorrow, 20 October, Friday

    Time Temperature Precipitation Wind Pressure Humidity
    00:00 +10°C° 0.1 mm 6 mps 738 mmHg 89%
    01:00 +10°C° 0.4 mm 7 mps 739 mmHg 88%
    02:00 +10°C° 0.4 mm 8 mps 740 mmHg 87%
    03:00 +10°C° 0.4 mm 9 mps 740 mmHg 86%
    04:00 +10°C° 0.3 mm 9 mps 741 mmHg 85%
    05:00 +9°C° 0.3 mm 8 mps 742 mmHg 85%
    06:00 +9°C° 0.3 mm 8 mps 743 mmHg 84%
    07:00 +9°C° 0 mm 7 mps 744 mmHg 82%
    08:00 +8°C° 0 mm 7 mps 745 mmHg 80%
    09:00 +8°C° 0 mm 7 mps 746 mmHg 78%
    10:00 +9°C° 0 mm 7 mps 746 mmHg 75%
    11:00 +10°C° 0 mm 6 mps 747 mmHg 71%
    12:00 +11°C° 0 mm 6 mps 747 mmHg 67%
    13:00 +11°C° 0 mm 6 mps 747 mmHg 68%
    14:00 +12°C° 0 mm 5 mps 747 mmHg 69%
    15:00 +12°C° 0 mm 5 mps 747 mmHg 69%
    16:00 +12°C° 0.1 mm 5 mps 747 mmHg 74%
    17:00 +10°C° 0.1 mm 5 mps 746 mmHg 78%
    18:00 +10°C° 0.1 mm 6 mps 746 mmHg 82%
    19:00 +10°C° 1.3 mm 6 mps 745 mmHg 84%
    20:00 +10°C° 1.3 mm 7 mps 744 mmHg 87%
    21:00 +10°C° 1.3 mm 8 mps 743 mmHg 89%
    22:00 +11°C° 1.1 mm 7 mps 742 mmHg 89%
    23:00 +11°C° 1.1 mm 7 mps 741 mmHg 89%

    Day after tomorrow, 21 October, Saturday

    Time Temperature Precipitation Wind Pressure Humidity
    00:00 +12°C° 1.1 mm 7 mps 741 mmHg 89%
    01:00 +11°C° 0.1 mm 7 mps 740 mmHg 87%
    02:00 +11°C° 0.1 mm 7 mps 740 mmHg 86%
    03:00 +10°C° 0.1 mm 7 mps 740 mmHg 84%
    04:00 +10°C° 0 mm 8 mps 739 mmHg 83%
    05:00 +10°C° 0 mm 8 mps 739 mmHg 81%
    06:00 +9°C° 0 mm 8 mps 739 mmHg 80%
    07:00 +10°C° 0 mm 9 mps 738 mmHg 78%
    08:00 +9°C° 0 mm 10 mps 738 mmHg 75%
    09:00 +11°C° 0 mm 11 mps 738 mmHg 73%
    10:00 +11°C° 0.1 mm 11 mps 737 mmHg 73%
    11:00 +11°C° 0.1 mm 11 mps 737 mmHg 73%
    12:00 +11°C° 0.1 mm 11 mps 736 mmHg 73%
    13:00 +11°C° 0.5 mm 11 mps 736 mmHg 76%
    14:00 +11°C° 0.5 mm 11 mps 736 mmHg 78%
    15:00 +11°C° 0.5 mm 11 mps 736 mmHg 81%
    16:00 +9°C° 0.7 mm 10 mps 737 mmHg 82%
    17:00 +9°C° 0.7 mm 10 mps 738 mmHg 82%
    18:00 +9°C° 0.7 mm 10 mps 739 mmHg 83%
    19:00 +8°C° 0.4 mm 9 mps 739 mmHg 83%
    20:00 +8°C° 0.4 mm 9 mps 740 mmHg 84%
    21:00 +8°C° 0.4 mm 9 mps 741 mmHg 85%
    22:00 +8°C° 0.7 mm 9 mps 742 mmHg 84%
    23:00 +8°C° 0.7 mm 9 mps 743 mmHg 83%

    22 October, Sunday

    Time Temperature Precipitation Wind Pressure Humidity
    00:00 +8°C° 0.7 mm 10 mps 744 mmHg 82%
    01:00 +7°C° 0.1 mm 9 mps 744 mmHg 81%
    02:00 +7°C° 0.1 mm 9 mps 745 mmHg 80%
    03:00 +7°C° 0.1 mm 9 mps 746 mmHg 79%
    04:00 +6°C° 0.2 mm 9 mps 746 mmHg 79%
    05:00 +6°C° 0.2 mm 9 mps 747 mmHg 80%
    06:00 +6°C° 0.2 mm 9 mps 747 mmHg 80%
    07:00 +7°C° 0.2 mm 9 mps 748 mmHg 79%
    08:00 +7°C° 0.2 mm 9 mps 748 mmHg 77%
    09:00 +7°C° 0.2 mm 9 mps 749 mmHg 76%
    10:00 +8°C° 0 mm 9 mps 750 mmHg 73%
    11:00 +8°C° 0 mm 9 mps 751 mmHg 71%
    12:00 +10°C° 0 mm 9 mps 751 mmHg 68%
    13:00 +10°C° 0.1 mm 9 mps 752 mmHg 70%
    14:00 +10°C° 0.1 mm 8 mps 752 mmHg 72%
    15:00 +10°C° 0.1 mm 8 mps 752 mmHg 73%
    16:00 +10°C° 0 mm 7 mps 753 mmHg 76%
    17:00 +9°C° 0 mm 6 mps 753 mmHg 78%
    18:00 +9°C° 0 mm 6 mps 753 mmHg 81%
    19:00 +9°C° 0 mm 5 mps 754 mmHg 81%
    20:00 +8°C° 0 mm 5 mps 754 mmHg 82%
    21:00 +8°C° 0 mm 4 mps 755 mmHg 83%
    22:00 +10°C° 0.2 mm 4 mps 755 mmHg 85%
    23:00 +10°C° 0.2 mm 4 mps 755 mmHg 87%

    23 October, Monday

    Time Temperature Precipitation Wind Pressure Humidity
    00:00 +10°C° 0.2 mm 4 mps 755 mmHg 89%
    01:00 +10°C° 1 mm 4 mps 754 mmHg 91%
    02:00 +10°C° 1 mm 5 mps 754 mmHg 92%
    03:00 +10°C° 1 mm 5 mps 754 mmHg 94%
    04:00 +12°C° 0.4 mm 5 mps 754 mmHg 93%
    05:00 +12°C° 0.4 mm 5 mps 753 mmHg 93%
    06:00 +13°C° 0.4 mm 5 mps 753 mmHg 93%
    07:00 +13°C° 0.2 mm 5 mps 753 mmHg 92%
    08:00 +13°C° 0.2 mm 6 mps 753 mmHg 92%
    09:00 +13°C° 0.2 mm 6 mps 753 mmHg 92%
    10:00 +14°C° 0.7 mm 6 mps 754 mmHg 92%
    11:00 +14°C° 0.7 mm 6 mps 754 mmHg 92%
    12:00 +14°C° 0.7 mm 6 mps 754 mmHg 92%
    13:00 +15°C° 0 mm 6 mps 754 mmHg 90%
    14:00 +15°C° 0 mm 6 mps 754 mmHg 89%
    15:00 +16°C° 0 mm 6 mps 754 mmHg 88%
    16:00 +15°C° 0 mm 6 mps 754 mmHg 88%
    17:00 +15°C° 0 mm 6 mps 754 mmHg 89%
    18:00 +14°C° 0 mm 6 mps 755 mmHg 90%
    19:00 +14°C° 0 mm 6 mps 755 mmHg 90%
    20:00 +14°C° 0 mm 6 mps 755 mmHg 90%
    21:00 +14°C° 0 mm 6 mps 755 mmHg 91%
    22:00 +14°C° 0 mm 6 mps 755 mmHg 91%
    23:00 +13°C° 0 mm 6 mps 755 mmHg 91%

    24 October, Tuesday

    Time Temperature Precipitation Wind Pressure Humidity
    00:00 +13°C° 0 mm 6 mps 756 mmHg 91%
    01:00 +13°C° 0 mm 6 mps 756 mmHg 91%
    02:00 +13°C° 0 mm 6 mps 756 mmHg 91%
    03:00 +13°C° 0 mm 6 mps 756 mmHg 90%
    04:00 +11°C° 0 mm 6 mps 756 mmHg 91%
    05:00 +11°C° 0 mm 6 mps 756 mmHg 91%
    06:00 +11°C° 0 mm 6 mps 756 mmHg 91%
    07:00 +11°C° 0 mm 6 mps 756 mmHg 90%
    08:00 +13°C° 0 mm 6 mps 756 mmHg 89%
    09:00 +13°C° 0 mm 6 mps 756 mmHg 88%
    10:00 +14°C° 0 mm 6 mps 756 mmHg 86%
    11:00 +15°C° 0 mm 6 mps 757 mmHg 84%
    12:00 +15°C° 0 mm 6 mps 757 mmHg 82%
    13:00 +15°C° 0 mm 6 mps 756 mmHg 82%
    14:00 +15°C° 0 mm 5 mps 756 mmHg 83%
    15:00 +15°C° 0 mm 5 mps 756 mmHg 83%
    16:00 +15°C° 0 mm 5 mps 756 mmHg 84%
    17:00 +15°C° 0 mm 5 mps 757 mmHg 85%
    18:00 +14°C° 0 mm 4 mps 757 mmHg 85%
    19:00 +14°C° 0 mm 4 mps 757 mmHg 87%
    20:00 +14°C° 0 mm 4 mps 757 mmHg 89%
    21:00 +13°C° 0 mm 4 mps 757 mmHg 91%
    22:00 +13°C° 0.1 mm 4 mps 758 mmHg 92%
    23:00 +13°C° 0.1 mm 4 mps 758 mmHg 93%
    Show more